DMSP 5D-2 F13 DEB, 40600

Orbit data source: Space-Track

DMSP 5D-2 F13 DEB, 40600 is space debris in SSO originally from a launch on Fri, 24 Mar 1995 UTC launched from the Air Force Western Test Range (AFWTR). Debris objects in space refer to the collection of defunct objects orbiting the Earth. Examples of debris include non-operational satellites, rocket bodies, and fragments generated from explosions, collisions, or faulty payload assembly.

Loading next visibility...
Identifier
40600, 1995-015EX
Orbit
SSO
Country
Flag of USUS
Related business
Manufacturer
Unknown
Mission
Spacecraft
Bus & Motor
Unknown
Mass
Unknown
Launch date (UTC)
1995-03-24 (31 years ago)
Launch vehicle
Unknown
Launch site
Air Force Western Test Range (AFWTR)
Object type
Payload
Rocket body
Debris
Shape & HBR
Unknown shape, 0.1 m
Radar Cross Section
Small (<0.1 m²)

Expand to show TLE details & history
Last TLE update: 10 hours ago

TLE from 10 hours ago
0 DMSP 5D-2 F13 DEB
1 40600U 95015EX  26121.40625623  .00008371  00000-0  28528-2 0  9996
2 40600  98.8535 167.0793 0037895 160.5032 199.7612 14.36301296569169
Epoch: 2026-05-01T09:45Z
TLE epoch observation values (Epoch: 2026-05-01T09:45:00.538Z)
Latitude
-0.00003°
Longitude
161.48809°
Altitude
799.189 km
Speed
7.441 km/s
True Right ascension
11h 08m 19s
True Declination
0° 00' 00"
Sunlit
Object was in full shadow at epoch
Visualization orbit readout
Latitude
Unknown
Longitude
Unknown
Altitude
Unknown
Speed
Unknown
Apparent Right ascension
Unknown
Apparent Declination
Unknown
Sunlit
N/A
Visualization observer readout
Local Sidereal Time
03:44:53
Azimuth
Unknown
Elevation
Unknown
Doppler factor
Unknown
Orbital elements
Apogee altitude
794.969 km
Perigee altitude
740.809 km
Semi-major axis
7,146.026 km
Eccentricity
0.00379
Inclination
98.8535°
RAAN
167.0793°
Arg. of periapsis
160.5032°
True anomaly
199.61503°
Mean anomaly
199.7612°
Eccentric anomaly
199.68805°
Mean motion
3.59291 °/min
Orbital period
100.2 mins
BSTAR
0.0028528
Loading maneuver chart data...
Computing Atmospheric mass density...

Documentation

Showing up to 5 results
|